ONEWEB-0298 (49087 NORAD) Tracking and Keplerian Element Data

This shows tracking and keplerian element data for the satellite.

Feedback or suggestion? Click here.




ElementValue
Catalog49087
NameONEWEB-0298
Epoch Orbit363
Epoch Day261.91667824
Epoch Year2021
RAAN356.514
Inclination87.4249
Eccentricity0.0020425
Argument of Perigee188.0606
Mean Anonmoly127.3698
Mean Motion15.16647644
Decay Rate-0.01008905
L11 49087U 21075N 21261.91667824 -.01008905 00000-0 -55784-1 0 9993
L22 49087 87.4249 356.5140 0020425 188.0606 127.3698 15.16647644 3632

Live tracking and technical data element details for ONEWEB-0298 (NORAD 49087). ONEWEB-0298 can be tracked NOW for your location showing map with azimuth and elevation plus other details from your city location.

Track the satellite on the map from your city or location and see movement details for azimuth, elevation, latitude, longitude, range, height, and movement on the map or in text.







IsCatalogInMostPopularTable: catalog: 49087, numindb: 4
Update: records affected: 1



GetName: 49087 ONEWEB-0298

Hit Count: updated at: Fri, 24 Sep 2021 17:18:23 GMT